Theta_e
307 307 306 306 306 306 306 306 306 305 304 300 297 298 295 297 297 307 311 313 308 296 286 290 289 289 293 300 299 300 298 295 297 295 295 292 294 291 290 291 289 292 290 290 288 288 282 286 285 287 287 288 292 295 296 299 298 295 287 292 291 299 282 278 281 285 287 289 296 296 296 294 289 290 291 289 285 287 284 283 285 281 283 280 279 276 280
306 306 306 306 306 306 306 306 306 305 304 301 299 294 294 296 296 301 309 313 306 294 286 286 285 290 295 296 296 300 297 296 296 294 294 291 291 289 289 291 293 290 293 290 288 289 278 289 287 283 288 286 294 295 296 297 295 295 289 287 292 283 282 282 276 277 280 281 284 288 294 293 288 287 290 292 292 292 291 290 290 282 283 283 279 274 280
306 306 306 306 306 306 306 306 306 305 305 304 297 293 295 294 298 299 304 307 303 294 293 289 286 290 292 292 292 293 296 299 297 294 294 296 291 290 284 289 292 292 293 291 291 292 286 282 288 288 288 288 294 294 295 296 294 298 303 302 296 286 282 281 275 272 270 269 271 275 281 284 288 291 292 293 292 290 287 281 284 279 284 284 280 280 286
306 306 306 306 306 306 306 305 305 305 305 305 299 295 295 296 287 292 294 297 299 296 299 296 293 288 289 286 289 294 292 297 298 297 295 296 295 291 291 291 293 289 288 285 289 287 292 288 284 285 284 288 292 294 295 295 294 300 304 302 295 284 286 283 279 277 276 278 281 284 288 285 283 288 290 291 293 293 290 287 283 280 284 282 285 285 286
306 306 306 306 306 306 306 305 305 305 305 305 299 298 296 296 291 289 287 294 293 294 295 295 294 289 293 286 292 291 293 295 297 301 293 298 295 294 291 291 287 284 284 286 285 288 286 291 288 286 287 289 290 295 295 295 298 303 301 303 290 284 281 284 284 283 283 285 285 288 290 286 288 288 288 291 290 291 287 282 282 289 284 279 285 287 286
306 306 306 306 306 306 306 305 305 305 304 305 301 296 298 290 291 294 296 290 284 287 287 295 294 296 296 291 296 293 292 292 289 296 299 299 297 289 290 292 292 288 284 283 281 286 284 286 282 289 289 289 291 291 294 293 298 301 299 302 290 284 281 284 285 284 287 288 288 289 289 288 287 287 288 287 289 287 284 284 288 289 284 280 285 287 286
306 306 306 306 306 306 306 306 305 305 304 303 299 293 294 295 293 296 297 288 290 292 294 296 295 294 295 290 295 291 293 290 294 294 294 296 294 293 282 286 290 286 289 286 284 283 282 278 285 286 285 287 287 286 290 294 295 292 292 294 292 287 280 283 286 284 286 287 288 288 288 287 285 287 288 288 288 287 287 287 289 289 287 289 288 288 288
306 306 306 306 306 305 306 306 305 305 304 302 298 295 291 290 289 288 293 293 291 292 293 295 294 291 296 287 293 294 292 289 293 295 294 287 292 295 290 289 290 291 291 288 282 281 286 287 283 287 287 285 288 287 289 288 291 289 288 291 291 288 282 290 286 283 284 286 287 287 287 282 284 288 287 287 288 288 289 288 287 289 288 289 289 286 286
307 306 306 306 306 305 306 306 306 305 304 298 296 295 294 294 296 297 290 286 289 293 292 292 292 287 289 288 292 294 294 293 295 294 298 294 292 294 292 293 291 292 291 286 286 287 289 290 290 291 290 285 289 287 286 290 286 288 288 289 291 290 281 286 284 281 279 284 285 285 285 285 286 286 287 286 285 284 285 284 287 287 285 287 286 284 284
307 306 306 306 305 305 305 305 306 304 303 298 295 293 296 295 296 297 292 285 293 289 292 292 289 284 291 294 293 292 292 295 295 286 295 298 298 297 296 294 292 290 289 289 291 293 293 293 294 294 294 294 292 292 292 291 288 286 286 288 285 286 284 283 280 281 280 283 286 283 282 280 280 284 286 287 288 288 289 289 290 291 291 285 283 283 289
307 306 306 306 305 305 305 305 306 305 301 297 297 294 295 293 292 292 291 287 285 289 290 289 289 293 293 295 293 295 293 294 295 288 286 296 296 298 297 294 292 288 289 293 297 297 297 296 294 292 292 291 291 291 291 292 291 290 288 287 286 289 288 284 284 281 279 283 285 281 278 272 278 288 291 291 288 289 286 286 288 289 289 287 290 290 292
307 306 306 306 306 305 305 305 306 306 303 298 299 297 297 297 294 293 286 284 284 289 289 287 289 291 292 293 293 292 292 292 293 296 292 293 295 297 296 295 294 284 294 297 295 294 296 296 294 293 292 291 291 292 291 290 290 292 291 288 286 287 286 283 286 282 281 280 280 277 275 277 288 290 294 295 294 293 289 289 289 290 291 291 289 289 290
307 306 306 306 305 305 305 305 305 305 305 300 298 295 298 298 294 292 290 286 283 287 286 287 291 292 292 292 291 292 293 294 296 296 295 293 293 295 297 295 292 294 298 296 295 294 290 287 289 289 290 292 292 292 291 290 290 291 290 290 288 284 284 283 282 280 280 278 276 273 276 284 288 292 294 295 294 290 287 284 288 292 293 290 287 289 291
306 306 306 306 306 305 305 305 305 305 305 303 297 296 297 297 292 290 288 283 284 287 290 288 289 290 291 291 291 292 293 293 293 293 292 296 294 294 296 297 297 298 298 297 293 291 285 283 282 283 285 287 285 286 292 292 291 290 290 293 293 291 284 283 282 284 278 275 276 277 283 285 288 287 289 290 285 286 285 282 286 291 290 289 288 289 291
307 307 306 306 305 305 305 305 306 305 305 305 298 296 296 297 295 292 292 289 284 286 288 284 287 289 291 291 291 290 288 289 289 289 294 296 294 297 296 298 299 299 298 293 287 287 284 283 279 279 280 280 276 281 293 291 294 292 292 295 294 292 287 282 282 281 283 280 275 275 277 276 281 288 292 295 295 293 290 286 282 290 290 289 289 289 290
307 307 306 306 305 305 305 305 306 306 305 304 298 296 297 299 299 296 292 288 285 283 288 292 293 291 289 289 291 290 286 285 287 288 288 290 293 295 297 299 299 298 296 295 289 286 283 282 278 278 276 278 284 284 281 289 287 293 296 295 293 292 290 287 283 280 281 279 277 276 275 278 285 288 291 293 293 291 290 284 278 286 289 291 290 289 290
307 307 307 306 306 305 305 305 305 305 304 304 297 296 296 301 297 295 291 290 288 284 291 295 295 293 289 287 289 287 289 285 288 284 283 286 290 293 295 298 298 297 295 288 286 284 281 280 281 280 281 285 282 280 284 282 281 282 293 294 292 289 284 282 282 278 279 279 279 276 277 279 287 290 290 292 292 291 282 272 272 284 290 291 290 289 290
307 307 307 307 306 305 305 305 305 305 305 305 298 295 296 301 300 297 293 290 286 285 290 296 293 288 287 288 288 291 293 291 290 291 287 288 290 290 292 294 292 295 296 286 285 281 280 280 279 279 278 286 287 285 275 282 279 279 281 285 283 283 283 282 281 278 280 282 280 277 277 284 291 291 292 291 292 288 278 273 281 291 291 290 290 290 291
307 307 307 307 306 306 305 305 305 305 304 304 300 299 297 299 301 299 293 290 289 285 291 297 297 294 295 297 293 294 294 292 291 286 284 285 288 293 294 294 295 286 290 285 283 281 281 279 284 283 280 280 285 280 283 279 279 283 283 279 280 278 281 279 278 279 278 277 278 275 279 287 291 292 292 292 286 276 276 287 293 291 290 291 291 290 292
307 307 307 307 307 306 305 305 305 305 305 305 302 296 298 301 301 299 294 289 291 290 293 294 295 293 296 293 289 288 290 291 292 289 286 283 290 293 288 284 289 290 286 285 279 283 281 279 281 284 279 279 281 287 279 282 286 284 284 286 280 282 279 279 279 279 278 275 274 274 273 283 292 291 286 289 280 281 287 289 290 290 290 290 290 291 291
307 307 307 307 307 307 306 305 305 305 305 305 303 297 296 300 301 302 301 297 291 286 288 296 298 295 296 294 295 295 293 290 290 288 290 289 292 288 281 280 285 286 283 285 281 281 282 279 280 282 284 284 284 284 279 279 282 289 290 286 285 288 280 280 279 283 279 280 279 279 285 290 294 289 281 286 287 289 290 289 287 289 289 289 290 290 291
307 307 307 307 307 307 307 306 305 305 306 305 304 299 295 300 304 305 306 301 294 289 290 294 297 296 298 299 298 298 297 296 297 296 291 286 289 289 286 290 288 288 291 292 284 281 283 284 283 279 278 280 282 279 283 277 274 282 288 288 281 291 284 283 281 286 284 283 285 289 295 294 295 293 291 290 291 291 291 290 289 288 289 290 289 289 291
307 307 307 307 307 307 307 306 306 306 306 306 303 297 295 298 301 306 304 297 298 298 299 297 298 298 300 300 301 301 301 301 299 298 297 291 284 287 289 288 287 294 297 295 288 285 285 283 279 284 281 280 281 279 280 281 279 282 282 290 287 293 293 289 288 287 294 294 295 293 293 294 295 294 293 292 291 291 291 290 288 289 289 289 289 290 291
306 306 307 307 307 307 307 306 306 306 306 306 303 296 295 298 301 301 300 298 294 289 292 294 290 285 291 296 300 301 301 300 300 300 302 299 288 284 288 292 294 294 291 293 294 290 285 284 285 285 280 281 286 280 279 277 276 284 283 283 292 294 294 289 285 291 288 284 293 292 291 292 293 292 292 292 291 291 291 289 289 289 290 290 291 291 291
306 306 306 307 307 307 307 307 306 306 306 306 305 303 302 299 300 299 296 288 288 288 286 287 288 295 298 301 301 300 300 303 303 301 300 300 296 291 289 293 296 292 291 294 296 291 285 286 284 283 280 285 287 281 283 281 282 286 281 282 284 286 293 287 288 286 284 285 290 291 292 292 293 291 289 289 290 291 290 290 290 290 290 290 290 291 291
306 306 306 306 307 307 307 307 306 306 305 306 305 300 298 297 301 302 300 299 297 293 286 284 290 299 299 298 297 300 302 301 301 301 301 300 300 299 297 298 296 296 294 294 293 289 285 284 283 281 282 283 290 283 282 286 286 288 286 283 287 289 292 281 286 283 284 286 287 289 288 289 289 290 290 289 290 290 290 290 290 290 289 289 290 290 290
306 306 306 306 306 306 307 307 306 305 305 306 304 302 301 301 303 300 298 298 292 286 287 285 290 295 298 295 299 300 301 300 299 299 300 301 301 300 298 296 294 293 293 290 289 286 284 284 282 282 284 283 287 287 287 286 285 283 283 289 292 290 285 288 283 279 277 280 284 286 281 280 285 288 289 290 291 291 290 289 289 289 288 289 289 290 290
306 306 306 306 306 306 306 307 306 305 306 306 305 303 303 301 301 302 302 301 295 287 286 287 288 293 298 294 299 299 300 301 299 298 298 299 300 300 298 296 294 293 290 289 285 286 284 284 284 281 283 286 287 284 288 287 287 286 284 286 290 287 288 284 279 279 278 284 287 287 287 285 287 288 290 290 291 290 288 288 288 288 288 289 289 288 288
306 306 306 306 306 306 306 307 306 305 306 305 303 302 302 303 303 303 303 304 301 296 291 291 294 291 285 291 299 297 299 298 298 297 297 297 298 298 297 296 294 293 292 287 282 282 283 283 282 285 285 290 289 283 285 280 280 280 283 290 291 290 292 289 287 285 286 288 288 289 286 285 287 289 290 290 291 291 289 289 289 289 289 289 288 288 287
306 306 306 306 306 306 306 306 306 306 306 304 302 298 292 294 302 302 303 303 301 298 289 286 284 287 295 295 294 297 297 298 297 297 297 296 296 296 297 295 294 295 293 288 285 285 282 283 282 287 291 294 287 283 281 279 280 281 287 291 292 291 291 292 293 290 287 291 291 290 288 288 289 289 290 290 291 292 289 288 289 289 289 290 288 288 288
306 306 306 306 306 306 306 306 306 306 305 302 298 289 287 286 296 303 304 303 303 299 289 288 286 290 289 294 294 293 295 296 296 296 296 297 296 296 297 297 294 295 288 288 287 285 283 283 282 285 290 293 289 284 283 281 281 283 289 292 292 291 291 291 292 292 291 290 290 290 289 289 289 288 287 288 288 288 287 288 289 292 291 289 288 288 288
306 306 306 306 306 306 306 306 306 305 304 300 295 292 292 295 300 303 304 304 303 297 289 286 285 285 285 288 294 297 296 297 297 296 295 297 295 296 294 295 292 296 291 287 286 287 285 282 285 287 287 292 292 285 285 283 282 283 289 292 291 291 291 290 290 290 290 290 288 285 285 287 287 287 285 287 288 288 287 287 287 287 290 289 288 288 288
306 306 306 306 306 306 306 306 306 305 302 304 305 303 302 303 304 305 305 304 300 293 293 286 284 285 284 287 294 295 296 295 294 294 292 295 294 295 292 294 295 295 299 290 286 285 285 285 283 286 290 293 285 282 284 283 285 289 293 294 292 291 291 290 290 289 288 289 287 284 283 284 286 287 287 288 287 287 286 286 287 287 287 286 286 286 287
306 306 306 306 306 306 306 306 306 305 305 302 297 299 302 305 305 305 305 302 296 294 289 286 284 283 284 292 287 293 299 291 290 292 285 294 297 294 288 293 293 288 290 289 285 287 287 286 284 284 287 285 286 284 282 284 288 291 293 291 290 289 289 289 288 288 289 289 289 289 288 288 288 287 287 286 286 286 288 286 286 286 285 285 285 286 287
306 306 306 306 306 306 306 306 303 301 297 299 299 301 303 305 305 306 304 297 289 286 286 286 286 282 283 284 284 289 298 293 288 290 287 291 298 294 294 288 288 287 287 296 286 284 284 286 288 284 284 284 284 282 283 286 288 290 289 289 288 288 288 286 287 287 288 288 288 288 288 287 286 285 285 285 285 285 285 285 285 285 284 284 285 286 287
305 306 306 306 306 306 304 304 302 299 296 296 298 304 305 306 305 303 303 303 296 288 285 285 285 283 284 281 282 286 297 290 291 291 292 291 294 298 295 289 286 289 294 290 284 285 285 290 288 283 282 283 283 285 286 288 289 289 288 288 288 288 287 287 287 288 287 287 288 288 287 285 284 285 285 285 285 285 285 284 284 284 284 284 285 286 286
305 305 306 306 305 301 297 294 301 300 298 302 304 306 305 304 302 303 300 297 299 299 289 286 284 284 286 284 285 287 292 283 288 286 287 288 285 287 291 288 286 287 287 285 284 284 288 293 287 282 281 283 285 287 289 290 290 288 287 288 288 288 287 287 288 287 286 286 286 285 284 284 283 283 283 283 284 284 283 283 283 283 283 284 285 285 285
305 305 303 300 297 290 289 291 298 303 306 304 304 299 297 296 288 289 290 288 291 295 289 290 285 288 290 288 283 293 291 285 289 285 283 285 288 288 288 288 286 287 283 283 286 292 286 285 284 284 282 285 286 288 288 289 289 289 289 288 288 288 288 288 288 287 285 283 282 282 283 282 282 282 283 283 283 283 283 284 284 284 285 285 285 285 285
304 302 300 298 293 288 289 294 305 305 302 301 298 289 286 288 286 285 284 286 288 286 288 287 285 289 288 286 287 294 291 286 283 284 284 289 287 286 289 286 288 288 283 283 285 294 284 283 283 283 282 284 285 287 289 289 289 289 289 289 289 288 288 288 289 287 285 284 284 284 283 282 282 282 282 283 282 283 283 283 283 285 285 284 284 284 285
300 296 292 293 290 291 301 304 305 300 295 288 288 287 284 286 284 283 287 283 283 286 287 283 289 289 290 287 286 286 294 289 283 282 285 288 294 286 287 287 287 286 282 281 282 290 282 279 281 281 279 283 284 287 288 289 288 288 289 288 288 288 288 288 288 287 286 286 285 285 285 285 285 284 283 283 283 282 282 283 283 284 284 284 284 284 285
298 296 295 290 295 298 299 299 297 294 288 285 285 285 285 282 283 284 285 282 283 284 289 287 289 287 290 290 289 285 293 295 293 292 289 285 292 292 285 285 287 284 282 282 284 285 283 281 280 280 280 285 286 288 288 288 288 288 288 288 288 288 287 287 287 287 286 285 285 285 285 285 284 284 284 284 284 282 282 283 283 283 284 283 283 284 286
299 298 297 298 298 297 296 292 288 285 285 286 284 282 284 284 285 284 285 282 283 285 287 288 285 286 287 289 288 289 288 294 291 288 286 283 288 287 285 286 287 283 280 283 285 283 282 278 277 277 279 285 288 288 288 288 288 288 287 288 289 287 287 287 286 286 286 286 285 285 284 284 283 284 284 284 284 283 283 283 283 283 283 283 284 284 284
301 300 298 292 290 288 288 285 286 286 283 282 281 280 283 280 282 282 283 285 290 288 288 293 293 294 293 293 289 292 288 292 288 286 286 283 286 289 286 285 284 281 283 285 284 280 279 276 276 277 284 286 288 288 288 288 288 288 288 288 287 287 287 286 286 285 286 286 285 285 285 284 284 285 285 285 284 283 282 283 284 283 283 283 283 283 283
298 296 290 286 286 286 287 281 287 284 283 283 281 278 281 279 282 283 283 283 286 286 291 287 289 290 286 291 289 287 289 291 291 288 287 288 286 285 285 283 283 285 287 284 281 277 276 277 279 281 286 287 289 288 288 288 287 287 287 287 286 286 286 286 285 285 285 284 284 285 284 284 284 284 284 283 284 283 282 282 283 283 282 283 283 282 283
289 286 285 285 284 285 284 280 285 283 280 281 282 282 283 281 283 284 284 288 290 288 292 292 292 290 288 292 292 290 289 286 290 288 285 288 285 285 284 282 284 285 284 279 278 276 279 278 282 284 286 287 287 287 288 288 287 287 286 285 285 285 285 285 284 284 284 284 284 284 284 284 283 283 283 283 283 284 283 283 282 282 282 282 282 281 282
286 285 285 283 279 283 283 282 282 279 283 284 283 284 284 286 286 286 291 293 290 292 292 292 293 293 289 292 287 287 289 287 287 287 287 287 284 283 286 286 286 282 280 279 276 276 277 279 283 285 287 287 287 287 287 287 288 287 286 285 284 285 284 284 284 284 284 284 283 283 283 283 282 282 282 283 283 283 283 283 282 282 282 281 281 280 281
287 286 285 285 282 283 284 281 282 284 285 285 287 287 288 289 290 291 292 293 291 294 295 296 294 294 289 288 289 288 289 288 287 287 288 284 283 285 287 285 281 281 277 275 275 274 277 280 285 287 287 287 287 287 287 287 286 285 285 285 284 284 284 284 283 283 284 283 283 282 283 283 283 283 282 282 282 282 282 282 282 282 282 281 281 280 281
285 287 286 282 281 283 280 283 287 288 289 289 289 290 291 291 290 290 294 294 295 295 294 294 291 292 290 292 293 286 286 287 286 286 287 285 286 284 282 282 281 281 280 277 275 276 280 284 286 287 287 287 287 287 287 285 285 285 285 284 284 283 283 283 283 283 283 283 283 282 283 283 282 282 282 282 281 281 281 282 282 282 281 281 281 280 280
288 285 284 284 285 284 284 286 286 284 287 289 290 292 291 290 289 292 295 296 295 294 296 293 287 287 286 288 287 286 285 287 284 285 287 285 282 280 281 278 279 277 279 282 280 281 285 287 287 287 287 287 287 287 285 285 285 284 285 284 284 284 284 283 283 284 283 283 282 282 283 282 281 282 282 281 281 281 281 282 281 281 281 281 280 280 280
286 285 287 284 285 285 287 288 286 284 287 288 288 289 290 291 291 293 296 294 295 294 293 292 290 288 287 287 284 285 285 287 285 286 284 282 282 282 281 278 279 278 279 282 282 284 287 288 288 287 287 287 286 285 285 285 285 285 284 284 284 284 283 283 283 283 283 283 282 283 282 281 281 282 282 282 281 281 281 281 281 280 280 280 280 279 280
288 286 285 288 286 285 287 284 283 283 284 285 287 288 290 290 292 292 294 295 294 290 288 287 287 286 285 285 284 282 284 287 285 284 283 283 284 281 279 279 279 281 283 285 288 288 288 288 288 288 287 287 285 285 285 285 285 285 285 284 284 283 283 283 283 282 283 283 283 282 282 282 282 283 282 282 280 280 280 280 280 280 280 279 280 280 279
285 283 283 285 288 288 288 288 287 287 289 290 289 291 292 291 292 294 296 295 292 288 286 287 286 285 284 282 284 286 286 285 284 284 282 284 285 282 282 283 284 284 286 286 287 288 289 289 289 288 288 286 286 285 285 285 285 285 284 284 283 284 283 283 282 282 283 283 282 282 282 282 282 281 281 279 279 278 278 279 280 279 279 279 280 279 280
Wind_Speed
16 17 17 17 18 20 22 23 22 20 21 9 8 5 4 3 4 6 5 3 3 3 1 2 4 1 2 3 1 1 1 2 2 1 1 1 0 1 2 0 1 1 0 1 1 0 1 1 1 2 3 3 3 5 8 7 8 3 2 2 2 0 1 2 4 5 4 3 5 2 7 8 3 3 2 2 2 2 2 2 1 1 2 2 1 3 5
15 16 17 19 20 19 20 21 20 18 16 7 7 2 1 2 3 7 5 1 4 3 1 2 2 2 4 1 2 3 1 1 1 0 1 1 0 1 0 2 1 1 1 0 0 0 2 1 3 3 1 3 6 9 6 10 6 1 2 1 2 1 1 2 3 5 6 5 7 5 2 5 3 1 1 1 1 2 1 2 0 2 3 5 3 5 5
14 15 17 18 20 19 19 19 17 17 14 9 1 2 2 4 3 4 7 6 3 1 1 1 0 2 2 2 5 4 2 2 2 1 0 2 3 2 2 3 2 0 0 0 0 0 3 2 3 1 2 3 6 7 8 9 4 3 5 3 2 1 1 1 0 0 2 3 5 5 8 6 0 1 1 2 2 1 2 1 2 2 1 2 2 4 6
13 14 15 16 18 18 18 18 18 17 15 12 1 1 2 3 2 5 6 6 6 2 1 4 2 1 2 3 3 0 2 2 2 1 2 3 1 2 1 2 3 2 2 1 0 2 1 3 2 1 2 3 3 3 11 7 5 10 7 2 2 0 0 2 4 4 6 8 6 6 2 2 3 1 4 2 0 1 2 1 2 3 1 4 6 7 11
13 14 15 15 15 17 18 19 18 18 16 12 2 1 1 0 1 2 5 7 4 3 4 3 3 2 1 0 1 2 1 2 1 4 1 1 1 0 0 1 1 2 2 1 2 2 1 2 3 4 4 4 3 8 8 9 8 10 5 4 4 2 1 3 3 5 7 6 7 5 3 5 2 2 1 0 4 2 1 2 3 2 2 4 1 3 9
13 13 14 14 14 16 18 19 19 20 19 13 3 1 1 1 1 2 1 1 4 6 4 5 8 5 1 3 0 1 1 3 2 4 4 2 1 0 3 3 0 3 5 2 0 2 3 2 2 2 3 3 4 8 4 3 7 8 2 2 3 3 1 3 2 3 4 5 6 6 3 2 2 3 2 1 4 4 3 3 6 1 2 4 4 6 8
13 12 13 13 15 16 17 19 19 21 23 9 4 2 3 2 1 0 1 0 2 1 7 6 4 7 3 2 2 2 2 3 1 1 3 3 3 1 1 2 2 1 5 4 3 2 2 3 3 2 2 3 4 3 8 6 2 4 2 2 1 1 1 3 3 3 3 5 5 5 3 1 3 3 1 4 4 5 4 6 7 3 5 6 7 7 9
12 12 12 12 15 16 16 18 19 20 24 6 4 3 0 2 2 3 4 1 3 3 3 3 3 3 5 1 2 0 1 2 4 3 3 2 4 3 2 3 5 3 4 4 2 6 5 6 5 3 4 2 2 3 4 6 5 3 3 3 2 1 3 3 0 2 3 3 2 4 5 6 1 1 2 3 5 5 7 3 4 4 4 5 4 6 10
11 12 12 12 13 15 16 16 17 20 18 4 4 1 1 1 1 0 1 4 4 2 3 4 3 1 4 3 2 1 2 3 2 3 2 3 2 3 6 5 6 3 3 5 7 8 7 8 11 10 5 6 6 3 3 2 5 5 4 1 1 1 3 1 1 2 4 2 3 2 2 3 3 2 2 3 3 4 3 2 3 3 4 3 4 6 7
10 10 11 11 12 13 14 14 15 16 15 3 2 2 2 1 1 1 1 1 3 2 3 3 2 1 2 2 3 2 3 3 4 3 4 1 2 3 5 7 4 6 4 8 8 9 8 11 11 9 9 9 6 9 9 7 7 3 3 1 4 2 1 1 1 3 4 4 3 5 2 1 2 4 4 3 5 6 7 5 6 4 2 1 4 7 7
9 9 10 10 10 12 13 12 12 13 8 5 3 1 3 4 3 4 3 0 5 2 3 3 3 1 3 6 4 3 3 6 5 1 3 4 7 6 5 8 6 5 4 4 5 5 7 7 6 4 7 9 11 10 11 12 10 9 4 1 2 1 1 1 1 1 3 2 4 2 3 1 1 2 2 2 3 7 6 7 8 2 5 2 3 5 8
8 8 9 10 9 10 11 11 10 10 6 2 1 2 1 1 1 1 1 1 4 2 2 2 1 3 4 6 4 3 5 7 8 4 6 4 6 5 5 7 0 3 3 5 4 4 6 4 3 5 8 11 14 13 12 11 11 9 8 8 4 2 3 2 1 0 4 3 4 1 1 2 1 3 5 4 6 7 7 10 10 5 4 3 5 7 9
8 9 8 9 8 8 10 10 9 9 7 3 1 0 3 1 1 1 1 1 2 2 4 3 2 3 3 4 7 5 6 7 6 6 4 3 5 6 1 3 1 4 7 10 8 5 4 5 8 6 9 8 8 9 10 11 13 9 8 9 6 3 4 3 1 2 1 2 2 1 1 1 1 4 6 6 4 2 3 4 2 1 1 3 7 11 11
7 8 8 9 8 8 9 9 10 8 9 6 4 2 3 2 3 2 1 2 4 2 0 4 4 6 7 6 4 7 6 6 6 3 3 2 6 8 6 5 4 8 8 6 5 1 4 5 4 8 8 7 5 3 2 5 10 6 9 8 8 5 4 3 2 1 1 1 1 2 0 2 3 4 4 4 3 6 4 7 2 4 2 2 8 11 11
9 8 8 8 8 8 8 9 8 7 7 6 1 2 2 2 2 1 0 1 2 3 1 1 3 4 4 4 3 6 3 4 6 6 6 4 3 1 5 9 8 11 9 3 2 2 0 0 2 4 5 5 4 3 2 2 1 5 7 6 8 9 6 4 2 2 2 0 2 2 0 3 2 2 6 4 5 6 4 4 4 1 3 3 7 10 12
9 9 9 8 8 7 7 8 8 5 6 6 2 2 4 2 0 2 1 1 1 2 1 1 2 2 3 3 2 3 3 3 4 6 5 2 2 8 6 6 11 9 5 1 1 0 0 0 2 1 1 1 2 2 2 2 2 6 7 9 7 5 4 6 5 1 2 1 2 2 2 2 3 7 6 8 5 6 1 3 3 2 6 10 8 12 13
10 9 10 9 8 8 7 7 6 5 4 5 2 3 2 3 2 2 1 1 1 4 2 2 2 1 1 4 4 3 1 3 3 4 6 6 6 6 10 11 8 2 3 0 2 1 2 1 0 2 3 2 1 1 2 2 3 2 3 7 7 6 2 2 1 0 2 2 2 3 1 1 3 5 4 7 7 2 4 4 3 3 9 7 9 11 12
10 9 10 9 8 8 8 7 7 6 4 3 1 1 3 4 1 1 2 0 0 4 3 2 5 1 0 1 2 4 2 2 3 2 4 4 3 3 9 8 7 6 3 2 1 2 1 0 2 1 1 3 3 1 2 2 3 2 1 3 2 1 0 2 4 2 3 4 2 1 2 2 3 4 5 7 5 2 5 3 7 9 8 7 9 11 10
10 9 9 8 8 8 8 8 7 5 3 1 2 2 3 2 2 1 1 1 0 2 5 5 2 3 1 1 1 2 1 2 2 2 5 7 0 3 6 6 1 4 7 2 3 1 0 1 2 1 1 4 3 1 3 2 2 4 1 4 2 1 0 0 1 0 1 2 1 2 1 2 3 5 1 5 4 3 3 4 5 7 10 9 9 10 10
11 11 10 9 9 9 9 8 8 6 5 2 3 1 5 5 3 1 1 0 1 4 7 5 1 3 1 1 3 3 6 5 2 2 1 5 3 10 8 2 2 3 6 2 2 1 1 1 1 1 2 1 1 1 1 2 2 2 1 1 2 0 0 0 0 1 1 1 0 1 0 1 2 5 2 4 4 4 4 4 4 4 8 10 9 7 10
12 12 11 11 11 11 11 9 8 7 7 4 4 1 3 3 2 2 3 2 0 3 6 3 2 4 1 6 6 7 5 8 5 3 3 2 2 2 1 1 3 2 2 2 2 3 1 2 3 1 1 0 3 2 0 1 5 3 2 1 1 1 1 1 1 1 1 1 1 1 1 3 4 3 2 2 1 3 3 2 6 5 5 6 7 9 9
13 11 11 12 12 12 11 10 9 9 8 6 6 2 1 3 2 0 1 3 3 5 6 5 3 9 11 10 10 10 11 12 12 4 2 2 2 3 2 0 2 1 1 1 3 3 4 1 1 2 2 3 3 0 1 2 1 2 3 2 1 1 2 3 1 0 1 2 1 2 2 1 2 3 2 2 2 2 2 1 3 4 5 3 6 10 11
13 12 12 13 12 12 11 11 10 8 8 8 5 2 3 3 3 1 1 1 2 5 5 8 6 8 8 10 12 12 12 11 8 5 5 3 3 2 4 2 3 3 1 1 0 1 2 1 2 1 1 2 1 3 2 3 2 2 2 2 2 1 2 1 3 2 2 0 2 2 2 1 2 1 1 1 3 4 1 2 4 4 3 3 7 10 10
13 13 13 13 13 12 12 12 10 8 8 9 6 3 3 2 2 3 1 1 1 5 6 2 2 5 0 4 3 2 5 5 11 13 7 6 3 3 2 2 3 0 0 1 3 1 2 1 3 1 2 3 2 1 1 2 2 1 2 1 0 1 1 1 1 1 4 2 2 2 1 1 3 3 2 3 2 2 2 3 3 4 4 5 7 8 9
14 13 13 14 14 13 12 12 10 9 8 9 8 4 1 2 2 1 1 1 1 1 3 7 4 10 7 7 7 7 4 3 3 5 5 7 8 6 5 4 4 1 3 2 1 2 2 0 2 1 2 5 1 4 3 0 5 2 4 2 1 1 0 2 0 0 1 1 4 3 3 3 2 2 5 4 6 6 4 3 3 3 4 4 5 7 9
15 14 14 13 13 13 13 12 11 10 9 10 9 4 4 4 2 2 2 2 1 1 3 3 7 6 2 6 8 5 5 8 8 7 7 11 11 11 9 3 3 1 1 0 1 2 1 0 1 1 1 5 1 1 2 2 6 4 4 6 4 1 1 1 1 1 3 2 1 4 5 2 4 8 5 3 4 3 4 3 3 4 5 7 7 5 7
15 15 14 14 14 14 12 11 10 10 10 10 7 5 5 4 4 3 2 1 1 3 2 5 5 7 5 11 14 8 7 4 4 7 9 11 12 10 9 7 6 3 3 3 1 2 1 1 2 3 3 4 1 3 3 5 2 3 2 2 1 2 1 1 2 1 1 1 2 2 2 3 6 5 6 5 4 2 2 3 4 4 6 7 8 9 5
16 15 15 15 15 15 12 11 11 11 11 10 6 5 4 5 5 5 5 5 4 4 3 4 5 8 8 13 6 3 6 6 6 7 6 8 12 12 10 11 8 5 2 2 3 1 2 2 5 3 1 2 0 5 2 3 2 1 1 2 1 2 3 3 3 3 3 2 1 1 1 4 6 6 6 6 3 1 3 3 4 4 4 5 8 10 10
16 16 16 16 16 15 14 13 12 11 11 8 4 4 5 7 7 7 7 4 3 4 3 5 6 4 4 6 8 10 8 4 6 6 7 8 8 10 11 10 8 6 3 2 2 2 2 4 2 3 2 2 1 4 1 2 1 4 4 2 1 1 2 4 3 3 2 4 3 2 1 2 5 7 6 5 2 0 2 3 4 4 5 6 7 7 9
17 16 16 17 16 16 15 13 12 11 11 6 4 2 2 5 7 9 9 7 4 1 2 2 5 4 3 4 8 8 7 5 4 5 7 6 6 7 9 9 7 7 5 5 5 4 4 2 2 2 2 4 2 1 1 2 2 5 3 2 3 4 4 3 5 3 3 2 2 2 2 4 4 3 4 3 1 2 3 4 4 5 6 6 7 7 6
17 17 18 18 17 16 14 13 12 13 12 6 4 1 1 2 1 2 8 7 6 4 1 1 7 5 6 3 4 10 11 8 7 6 5 6 7 8 7 7 5 7 6 2 2 6 2 2 1 2 1 5 4 1 3 2 4 2 4 4 5 6 5 5 4 3 4 2 1 0 1 2 3 3 3 4 4 3 3 2 3 5 6 6 7 7 8
17 17 17 16 16 16 15 14 14 14 9 8 7 5 4 3 0 3 7 6 7 2 1 3 4 1 3 4 3 3 7 10 6 3 3 2 3 5 4 9 5 8 6 6 3 1 4 4 3 3 3 5 5 2 2 4 6 7 4 6 4 5 4 4 3 3 3 2 2 3 3 5 3 1 3 3 1 1 3 2 3 3 5 5 5 5 6
18 17 17 17 16 17 16 15 15 12 8 9 2 4 2 2 1 6 7 8 3 1 1 1 4 2 3 5 7 6 4 1 1 1 3 2 3 3 3 3 3 2 3 4 2 4 4 4 2 3 5 4 2 2 3 7 7 5 8 8 6 5 4 4 4 4 2 1 2 1 2 3 4 4 3 1 3 3 3 4 3 3 5 7 9 9 11
18 18 18 17 16 17 17 16 15 13 7 4 6 6 2 4 7 8 7 4 2 1 1 1 3 3 5 4 4 7 1 2 3 2 3 3 3 5 4 3 3 3 3 7 4 0 1 1 4 4 1 3 2 1 5 7 6 6 6 6 5 4 4 4 4 4 1 1 1 1 3 5 4 2 2 4 4 3 3 3 4 6 6 6 8 9 10
18 17 17 17 17 16 16 16 10 9 5 5 3 1 7 10 7 8 8 4 3 0 1 1 1 4 3 2 2 6 2 2 3 2 2 5 3 5 3 3 1 4 3 3 0 4 4 5 6 3 6 1 3 4 6 6 4 5 6 6 4 6 5 5 2 3 2 0 2 4 5 4 4 4 2 2 2 2 3 3 3 4 6 7 8 9 10
17 17 16 16 16 13 8 11 6 5 4 4 2 8 15 10 8 4 2 2 1 3 2 2 2 4 2 5 4 3 2 4 4 2 4 1 1 2 2 4 3 6 1 4 5 3 4 4 3 4 2 3 7 7 8 6 8 8 9 7 6 6 4 6 4 2 0 2 3 2 4 3 4 1 0 1 1 2 2 3 3 3 4 7 8 9 9
17 16 17 14 8 4 5 3 3 4 4 4 8 14 15 10 4 3 2 2 2 0 3 2 4 7 6 4 1 5 1 3 3 2 2 1 5 1 2 2 6 1 2 2 2 5 6 3 3 3 3 7 8 6 7 8 11 11 7 6 6 6 6 4 4 4 3 4 5 4 2 2 2 2 2 2 2 1 2 3 3 4 5 7 6 8 10
17 16 9 6 4 3 1 3 4 9 19 23 17 7 3 3 2 0 1 2 2 3 3 3 9 2 2 4 8 3 1 5 2 1 4 2 1 2 1 2 4 3 5 4 7 5 3 2 4 7 6 3 3 2 3 6 6 7 8 7 6 6 5 4 4 4 2 2 3 3 3 3 3 3 1 2 1 2 1 2 2 2 2 3 4 5 9
14 8 5 3 4 4 4 3 12 22 13 4 4 3 1 0 2 2 3 1 1 4 2 5 8 6 7 8 11 2 4 1 4 2 2 4 1 3 0 3 2 2 3 1 6 5 3 2 1 3 7 2 3 2 2 7 6 7 7 7 7 5 5 4 2 3 3 1 2 2 2 1 0 2 1 2 2 2 3 2 3 3 2 3 4 5 7
7 7 5 5 3 2 5 14 22 12 4 3 2 2 3 1 3 3 2 2 3 2 2 7 4 7 11 13 11 7 5 5 6 5 5 5 1 2 2 1 1 2 4 3 4 3 3 3 3 3 3 4 5 4 4 6 8 5 6 6 6 5 5 5 3 2 4 3 3 2 2 1 1 2 1 1 2 4 4 3 2 1 2 3 3 4 7
6 3 5 4 4 4 5 5 4 5 4 2 1 1 2 2 4 1 2 4 4 4 4 4 3 4 6 7 6 10 3 2 2 1 1 4 3 0 0 2 1 2 3 3 2 2 1 1 2 4 6 5 8 6 5 6 7 6 5 6 6 6 5 4 5 4 4 3 2 1 1 2 3 2 1 1 1 1 2 2 1 2 3 3 4 4 4
6 5 5 8 6 6 4 5 2 3 2 0 2 3 3 1 1 1 2 5 6 2 4 5 4 6 7 12 9 4 3 3 2 2 2 3 3 3 2 1 1 2 2 4 2 0 1 2 2 3 2 3 7 6 8 8 6 6 5 7 6 5 6 7 6 4 4 3 2 2 0 1 2 1 0 0 1 1 1 1 2 3 3 4 3 4 4
21 15 10 7 4 3 1 2 1 1 4 2 2 3 3 4 5 4 3 3 2 3 2 3 2 2 0 4 2 5 4 2 3 2 2 3 2 1 2 2 1 3 4 1 1 1 3 3 3 4 4 6 7 8 7 8 6 7 7 6 5 6 7 7 6 4 3 3 3 1 0 2 1 0 0 1 2 2 2 2 3 3 3 3 4 4 4
9 7 7 2 3 1 1 4 2 2 2 2 5 7 6 3 4 4 3 4 4 4 5 7 6 7 5 4 4 2 1 2 2 1 3 2 1 2 1 3 4 4 0 0 0 4 5 2 4 4 6 5 5 7 7 6 6 6 5 4 5 6 6 5 4 4 1 1 2 0 2 3 1 1 1 2 2 0 2 3 3 3 3 4 4 4 4
5 4 3 2 2 2 3 3 2 2 5 5 3 4 6 8 8 9 8 3 5 4 4 4 4 7 5 2 1 3 2 2 1 2 2 2 2 2 1 3 2 0 2 4 1 2 1 3 1 3 7 7 7 8 7 7 6 7 6 5 5 5 6 5 4 3 1 1 1 1 2 1 1 1 2 3 1 0 0 2 2 3 3 3 3 4 4
3 4 4 4 4 3 3 2 3 4 3 3 5 4 5 3 3 6 3 3 4 3 5 7 5 5 5 3 4 3 2 2 2 3 1 1 2 4 3 1 0 1 1 1 3 6 7 5 6 8 8 8 8 7 6 6 6 6 9 7 5 5 5 5 4 3 2 2 1 3 2 1 2 1 2 1 1 2 1 1 2 3 2 3 3 3 4
3 1 1 1 1 2 1 5 6 5 4 3 4 6 7 6 2 3 4 4 6 6 4 4 6 6 5 3 2 2 1 1 2 2 2 2 3 2 0 2 4 2 3 4 5 4 2 4 6 7 7 7 7 6 6 5 4 6 7 6 5 5 4 4 4 4 4 3 2 3 2 2 1 1 2 3 4 3 2 2 3 2 3 2 1 3 4
3 1 1 2 4 3 6 6 2 2 2 3 2 4 5 2 2 6 4 5 5 6 6 4 3 2 3 2 2 4 2 0 0 3 2 2 0 1 1 2 3 2 3 4 6 4 4 5 8 8 7 8 9 8 6 5 5 7 6 6 5 5 4 4 4 4 3 2 3 4 1 1 3 3 1 1 2 4 2 1 2 1 2 2 2 3 4
2 3 3 2 1 3 3 2 4 4 3 2 2 1 2 5 7 7 5 3 5 7 7 6 3 4 2 1 2 2 3 2 3 3 1 1 2 4 3 3 4 6 4 4 4 4 6 8 8 9 9 9 7 6 5 7 7 7 6 6 5 5 3 3 4 4 3 4 4 3 2 2 3 1 1 2 3 3 1 1 1 1 2 2 2 3 4
2 2 1 1 0 3 3 2 4 4 5 4 3 5 4 5 6 5 3 4 4 5 3 3 2 1 2 1 2 2 3 2 2 1 3 5 4 2 3 5 5 4 1 2 3 3 5 7 9 9 8 8 7 9 9 7 7 7 6 6 4 4 3 3 3 4 5 4 4 2 4 4 1 0 1 1 2 2 1 1 1 2 1 1 3 3 3
0 1 3 2 5 2 5 5 6 4 3 6 7 7 6 6 6 5 2 4 4 3 2 3 2 2 1 2 2 3 3 2 2 5 3 4 3 3 5 7 4 4 4 3 5 8 9 9 10 9 9 8 9 10 10 10 8 8 7 6 4 3 3 4 6 4 3 3 2 5 4 2 1 0 0 0 1 2 2 3 2 1 2 3 2 1 2
2 2 4 4 4 5 3 1 1 2 3 2 3 5 5 6 5 4 4 6 5 5 5 2 2 2 3 5 4 1 0 1 3 2 4 4 3 4 5 6 4 4 5 6 6 7 9 9 9 11 10 10 10 10 9 8 9 8 7 6 5 6 5 5 4 4 3 1 4 4 3 2 0 2 2 2 2 3 3 2 1 1 2 1 1 2 1
Wind_Direction
332 335 336 335 337 339 341 344 346 349 352 7 347 334 14 33 246 263 300 239 93 62 40 317 28 26 234 283 302 279 247 199 239 90 316 60 350 53 69 221 85 208 168 266 74 91 287 212 202 259 293 282 244 274 335 318 309 138 310 19 276 360 72 13 285 301 294 336 145 133 102 112 50 38 85 92 86 115 156 199 96 240 196 168 163 240 265
329 333 333 334 336 337 338 343 345 345 4 357 314 20 16 275 272 312 307 50 106 78 56 341 315 276 314 32 274 281 209 138 353 219 254 143 4 134 176 330 165 231 169 136 314 125 27 258 23 332 320 298 267 318 358 349 329 158 223 131 254 35 302 111 349 358 345 347 348 340 355 73 89 306 288 85 106 115 145 193 68 262 217 199 160 252 277
327 331 331 334 335 333 336 340 340 343 346 357 50 350 293 284 257 242 293 352 66 112 181 143 180 309 303 332 334 342 3 251 195 168 216 145 169 100 257 195 170 198 110 180 220 202 153 285 293 205 239 259 297 298 0 344 341 292 249 239 120 118 217 77 62 46 332 312 327 314 324 333 322 135 213 111 17 91 82 90 185 238 301 250 204 263 280
324 328 332 334 333 331 335 336 337 338 341 346 116 267 2 19 6 305 335 358 5 51 58 75 70 326 358 9 280 79 337 319 266 330 261 181 159 170 172 21 85 42 37 9 230 270 231 174 259 15 292 302 298 330 327 330 308 286 295 62 86 141 56 109 152 165 202 218 226 246 219 340 316 242 34 339 86 169 122 155 210 233 206 259 252 262 298
321 325 332 332 331 333 333 335 335 335 337 344 150 266 158 284 59 351 336 332 34 22 10 28 39 325 225 353 248 357 304 303 315 345 8 37 126 306 114 154 42 310 59 228 307 233 312 280 247 252 249 239 254 303 300 303 289 293 275 171 79 71 17 255 184 209 220 220 231 252 227 262 279 327 272 294 348 291 186 165 248 138 236 266 210 336 316
318 324 329 330 330 333 334 333 337 335 335 346 174 10 208 39 278 92 212 129 272 7 317 3 326 301 269 247 68 247 341 9 10 319 12 354 47 66 335 66 91 185 191 149 224 258 223 234 235 289 252 298 304 312 293 274 282 298 268 133 125 137 185 270 161 260 250 259 277 278 295 204 234 172 204 142 274 311 295 247 253 244 224 255 289 308 307
315 322 326 329 330 333 335 336 339 338 333 349 150 65 304 130 278 47 15 115 277 215 270 310 291 312 303 252 34 348 60 26 5 297 325 356 333 98 266 289 276 202 170 141 219 222 348 306 281 226 273 237 301 316 326 308 77 28 354 24 147 80 226 230 196 244 273 283 280 318 312 6 54 108 287 241 269 281 275 273 278 244 252 260 275 286 290
311 316 321 326 329 333 336 341 341 342 338 336 81 60 55 356 53 311 347 3 294 275 312 299 332 348 332 53 338 43 43 10 342 338 31 330 308 341 341 259 274 260 178 170 175 222 203 231 253 244 220 298 178 243 209 261 318 35 359 344 332 107 269 242 228 339 290 270 338 58 82 119 116 216 226 263 271 283 270 266 290 287 264 278 270 290 297
304 310 317 324 327 332 335 343 346 346 346 41 54 59 68 257 201 191 13 344 282 291 349 344 338 13 344 43 299 54 343 339 334 287 259 237 275 332 302 311 305 279 210 194 228 235 216 224 225 224 194 239 203 177 279 196 300 333 336 13 356 39 263 23 64 351 298 293 84 67 87 119 128 35 333 312 330 316 304 304 266 291 267 268 298 307 315
294 304 312 319 325 328 334 343 350 356 348 84 32 45 295 15 298 36 119 290 304 2 311 306 37 11 298 341 309 350 308 342 358 344 285 257 273 291 325 312 317 295 300 272 252 249 224 229 231 221 220 225 217 209 233 230 242 266 257 270 298 185 181 311 59 335 266 258 68 129 144 48 16 353 304 298 279 255 271 269 279 259 218 153 346 309 298
292 302 306 312 320 325 330 340 350 8 16 38 10 344 350 40 338 355 36 55 316 8 10 337 69 332 7 356 324 354 347 347 337 30 289 318 308 333 336 326 317 270 275 263 245 218 227 232 244 235 225 232 240 237 238 241 228 219 226 246 263 143 131 357 75 249 263 284 315 140 91 73 180 240 211 201 257 288 295 289 291 258 152 205 184 264 294
287 295 299 301 312 319 325 332 346 7 41 344 211 242 275 283 80 104 78 89 260 311 67 258 37 304 10 327 340 327 332 327 309 298 284 289 290 324 332 313 108 339 260 257 291 305 296 286 251 253 241 244 246 247 236 237 237 211 203 209 214 157 97 129 109 176 277 307 353 45 135 184 242 290 285 254 258 263 256 274 280 266 210 272 299 303 311
276 284 291 300 303 310 317 323 339 356 15 16 91 245 301 303 139 138 140 126 241 310 341 297 309 281 273 334 345 325 312 299 307 311 278 278 320 324 307 286 334 305 319 309 307 339 332 301 301 278 273 274 259 241 234 224 243 211 200 202 195 206 127 159 209 191 343 19 19 27 270 185 213 272 283 277 282 283 312 288 292 190 182 258 304 310 307
265 272 277 288 296 301 306 317 329 349 5 17 10 302 283 1 69 46 76 97 286 242 213 316 340 341 345 342 326 311 321 338 325 324 344 305 307 294 301 326 316 305 315 308 302 15 354 27 346 0 335 355 359 14 291 200 229 197 202 201 188 146 96 122 250 169 227 206 180 214 5 343 299 332 330 347 321 309 314 290 257 211 206 295 314 311 316
257 260 266 273 287 292 295 307 316 336 356 5 358 302 323 2 86 120 279 108 225 286 162 180 288 298 314 314 342 331 346 321 349 319 294 280 263 303 315 306 323 316 312 320 325 35 125 46 2 0 320 28 14 310 325 19 283 211 192 143 139 146 163 214 130 257 136 118 346 356 350 237 266 246 270 285 263 257 233 161 283 308 260 305 328 320 325
239 253 259 260 269 275 288 293 304 329 356 13 34 353 284 278 105 117 134 150 127 12 223 217 270 282 294 285 311 345 309 331 308 299 312 299 271 314 318 340 315 304 304 246 194 105 81 96 253 47 264 262 256 294 319 14 340 28 57 99 88 45 82 133 148 188 89 111 167 217 214 219 222 294 299 291 283 285 125 130 270 245 332 349 337 327 324
240 244 252 252 252 260 269 278 293 311 353 21 14 333 302 354 65 97 68 14 104 218 245 339 342 354 360 327 2 351 347 310 313 344 328 330 329 326 321 330 311 315 335 55 12 58 12 350 313 210 273 248 333 266 311 24 332 6 43 60 68 68 18 44 42 16 215 166 167 256 195 177 291 282 295 292 304 312 77 350 265 313 352 331 331 322 321
234 239 245 245 245 250 255 261 272 284 316 51 61 350 295 310 304 94 65 114 175 279 257 74 35 16 206 211 288 267 270 307 339 305 267 274 321 13 335 334 336 322 359 65 21 69 25 112 31 341 271 264 312 40 355 315 343 287 229 172 157 118 9 91 202 181 210 176 264 59 309 284 269 290 309 311 334 70 65 241 287 331 331 326 326 320 318
227 231 232 233 235 239 242 250 256 273 295 37 1 315 273 251 294 86 126 356 100 255 263 333 275 223 216 36 222 267 281 319 270 303 307 334 340 329 281 268 2 334 353 6 40 77 48 282 336 308 260 316 2 60 298 36 292 287 344 38 11 338 144 291 60 49 259 212 168 228 196 234 242 295 349 348 53 26 273 282 311 320 324 324 324 319 326
223 225 227 225 224 228 238 242 245 248 249 163 105 209 266 298 283 155 113 187 291 269 289 274 165 246 101 39 314 317 319 329 238 225 215 256 308 353 7 27 319 12 331 46 42 273 83 313 296 350 23 317 280 292 29 281 275 271 324 125 123 228 91 257 246 282 10 42 64 10 242 233 320 322 17 13 97 225 233 280 296 309 313 318 324 331 324
218 222 223 226 230 234 231 233 235 236 236 195 125 47 331 289 288 224 158 132 133 300 300 271 226 237 264 262 232 230 220 238 227 227 237 225 247 67 327 227 306 1 323 8 5 319 15 338 327 349 250 169 281 28 183 267 318 300 36 104 96 303 102 307 286 161 229 248 240 135 228 301 334 80 132 273 206 229 259 316 320 315 309 314 327 326 325
215 216 218 224 230 231 227 224 224 228 229 199 147 119 245 266 270 112 135 134 189 208 234 256 272 278 267 250 241 226 230 235 243 212 244 293 291 184 203 355 282 217 285 24 30 355 9 314 8 31 352 304 14 212 287 26 316 266 342 61 11 251 172 177 169 301 106 240 168 286 263 197 6 96 171 205 273 293 289 288 271 300 312 311 329 323 320
212 212 216 222 226 227 223 219 220 221 218 199 150 156 211 302 342 360 101 246 261 265 267 276 277 266 268 257 238 228 225 223 242 242 218 192 296 296 212 225 268 239 285 86 151 174 223 114 252 193 299 229 220 312 319 197 229 344 15 326 152 193 219 167 94 192 169 212 184 161 294 351 172 227 206 329 323 309 310 295 319 296 289 309 329 320 317
211 210 212 216 220 224 222 216 214 210 209 201 176 145 224 261 284 354 297 178 238 303 295 272 13 313 243 322 325 181 194 221 213 225 201 178 194 291 324 225 214 353 346 246 192 182 220 147 223 161 217 251 12 236 224 309 266 241 30 340 201 254 268 81 92 201 140 244 207 219 256 270 187 238 278 343 332 287 267 299 281 296 320 330 335 324 318
209 208 208 213 216 218 219 216 210 205 198 199 192 207 258 308 271 209 121 54 273 147 278 311 270 249 268 267 266 269 220 205 212 212 191 201 206 201 212 219 175 197 268 243 37 41 49 180 317 24 265 265 167 272 223 136 290 56 13 265 20 284 127 82 263 281 142 216 188 239 238 186 180 345 9 322 328 319 303 269 307 341 331 335 326 323 328
208 206 205 205 210 214 215 214 207 198 193 199 196 174 188 220 257 250 236 230 205 190 242 257 275 296 299 317 288 260 290 289 263 245 213 206 208 218 237 262 305 43 137 258 124 226 176 91 141 178 160 285 127 208 261 230 251 273 226 238 197 209 64 206 187 213 275 325 322 329 341 13 347 353 319 301 294 318 302 315 354 348 345 338 338 340 328
206 203 202 201 205 211 211 208 204 200 195 200 203 192 204 233 225 232 221 194 316 300 160 250 263 286 360 310 290 301 279 243 224 218 233 230 220 214 219 233 234 261 273 309 329 158 126 173 138 238 179 228 273 264 239 296 248 275 267 262 289 81 170 193 57 358 312 196 274 345 34 283 303 300 296 314 316 277 288 338 353 350 347 343 343 341 345
205 202 199 199 202 207 208 203 201 196 195 197 204 209 216 223 228 216 219 229 195 236 261 268 297 294 310 278 274 244 274 268 255 250 231 220 219 218 212 216 210 220 202 179 291 254 171 199 250 229 210 284 341 287 244 262 349 2 212 254 190 146 189 130 159 175 228 233 235 213 204 251 243 260 298 318 294 290 357 340 339 336 346 351 353 348 349
204 201 199 197 200 202 203 201 198 189 187 185 174 216 242 236 236 224 223 213 226 262 264 281 288 290 273 269 297 291 271 234 249 234 233 236 218 206 206 204 200 197 182 147 157 150 165 225 182 165 190 213 106 268 5 296 262 250 231 227 179 207 139 134 183 158 175 189 206 203 183 236 275 292 304 294 276 307 339 351 353 357 358 358 3 357 349
203 201 198 196 196 199 201 200 194 183 176 164 174 201 299 286 205 212 197 198 180 144 277 323 303 265 308 317 289 289 301 290 244 233 234 228 225 204 198 192 208 196 180 186 170 228 218 189 263 273 226 125 179 230 247 220 216 249 256 237 149 106 127 161 165 146 209 192 193 209 217 264 268 276 283 284 329 343 25 22 10 4 0 8 0 351 352
201 200 199 198 195 196 196 196 190 181 167 172 151 123 117 275 299 153 177 178 161 171 221 152 251 324 306 248 259 283 290 290 284 283 254 237 213 206 193 177 202 168 199 212 203 229 146 239 171 271 237 169 153 204 227 268 272 289 246 211 173 162 160 179 182 153 135 190 214 5 31 302 319 353 347 354 341 19 46 10 7 10 9 11 357 353 345
200 198 198 195 192 189 190 190 189 178 180 172 189 186 190 183 224 158 150 143 132 155 203 314 297 263 277 288 265 260 277 274 274 256 251 182 232 192 187 176 198 183 178 184 209 129 230 204 166 216 175 196 156 253 202 223 238 247 216 202 187 181 178 170 148 169 172 142 73 26 1 320 316 349 253 272 312 51 75 36 9 3 9 7 347 346 333
198 197 195 194 191 189 187 188 183 181 189 199 88 57 342 307 249 130 128 122 100 184 151 132 249 316 273 282 302 273 208 333 313 143 280 192 214 163 209 198 170 171 185 121 207 210 209 164 148 242 232 133 168 216 216 228 229 220 191 187 179 176 187 187 143 142 108 100 135 149 234 259 268 273 277 301 54 41 28 21 357 2 7 3 351 347 343
197 195 194 192 190 188 188 185 182 185 191 182 228 223 196 156 129 134 124 104 104 108 69 151 270 250 261 325 311 283 329 322 272 173 265 272 170 142 203 166 189 184 214 190 251 196 307 104 188 217 68 214 181 151 253 241 222 203 180 168 155 147 135 109 108 100 104 41 313 228 243 250 266 284 33 26 14 355 10 15 14 12 359 1 353 350 341
196 194 192 190 187 184 179 175 173 192 195 204 250 180 154 164 152 161 152 129 110 336 71 247 204 281 299 294 239 276 289 279 290 235 202 266 173 184 176 165 258 200 266 118 154 195 196 216 160 139 232 151 141 225 240 240 218 164 146 154 162 136 120 110 152 176 197 240 19 348 334 1 30 40 21 343 352 340 12 2 6 11 360 356 349 346 344
192 189 189 187 183 173 170 179 180 156 207 197 199 159 158 155 142 130 77 25 135 160 164 219 181 233 221 279 291 279 331 302 254 265 228 203 293 190 136 130 198 234 180 166 217 186 210 211 134 245 171 168 224 206 228 193 180 168 161 161 177 152 167 161 162 187 295 25 40 21 24 43 80 104 279 300 324 349 19 15 340 1 11 352 346 346 345
185 185 182 175 157 151 191 193 140 183 215 124 112 112 108 99 47 33 22 8 295 59 199 189 220 217 185 248 299 269 18 301 315 337 321 189 219 259 115 125 222 235 153 248 212 215 239 142 181 223 197 206 238 226 208 189 171 162 168 160 147 126 123 131 143 104 53 12 10 16 39 55 4 349 6 346 327 327 20 358 323 0 6 349 346 349 344
180 171 155 151 126 160 206 236 180 133 115 113 113 96 5 17 113 30 244 213 242 179 234 191 245 188 162 198 235 237 309 264 9 1 298 244 121 266 149 162 222 157 225 212 228 165 106 154 208 215 251 253 263 220 178 146 141 133 134 136 135 133 128 130 112 85 66 12 351 348 353 6 352 314 3 322 314 348 319 285 302 323 348 342 337 345 338
162 155 142 170 141 183 184 200 132 122 109 86 54 84 67 337 93 227 215 189 218 216 199 204 232 177 200 227 248 247 240 307 347 351 286 280 80 303 100 202 271 175 263 158 281 138 220 240 244 207 248 219 148 185 145 123 119 128 131 137 134 139 130 119 131 142 161 190 215 207 180 167 282 313 314 329 331 299 284 293 320 337 337 330 328 345 338
148 162 162 153 191 180 110 131 129 113 79 62 356 103 157 174 188 215 117 177 237 220 193 235 207 201 200 215 240 267 159 188 209 221 214 292 218 209 264 232 261 156 237 184 243 172 165 215 218 182 265 204 195 193 154 134 127 136 132 139 133 135 132 148 149 143 123 131 166 184 191 126 127 116 77 38 2 338 327 328 313 308 328 315 318 351 341
159 118 132 145 142 110 112 122 26 54 81 94 66 3 110 176 215 216 182 226 220 236 184 208 153 219 213 224 213 245 223 191 257 167 206 235 262 7 21 239 228 198 231 214 271 123 170 244 204 192 235 197 165 170 151 128 135 147 146 138 136 148 147 116 109 119 104 94 92 90 84 80 78 104 124 135 55 347 320 293 287 298 310 317 338 335 328
144 123 117 94 85 92 72 28 54 81 46 180 161 196 175 218 124 214 214 212 212 203 216 170 212 199 216 192 197 182 256 203 189 173 180 259 257 195 235 249 310 228 250 232 170 91 118 235 239 265 255 178 159 155 146 146 159 149 147 147 155 148 126 122 126 133 141 126 142 152 173 99 97 119 162 99 16 347 324 296 309 305 301 296 317 346 358
98 100 92 87 57 32 74 89 276 133 147 156 152 209 177 202 195 177 198 224 241 223 218 155 250 181 180 112 210 200 219 182 182 214 187 233 272 169 185 217 230 249 229 280 118 247 222 239 242 249 184 167 163 152 156 158 164 155 164 167 162 148 135 132 136 146 145 127 124 149 320 44 58 138 237 57 32 15 331 292 271 286 309 332 360 3 357
82 64 63 22 86 267 133 186 151 126 208 189 171 196 166 195 185 180 217 214 178 222 190 173 197 165 221 192 161 169 228 272 209 165 234 242 233 214 199 222 214 245 92 15 192 208 223 212 211 192 174 159 152 154 161 157 156 148 166 161 126 124 131 132 121 97 62 32 79 233 59 69 103 317 350 360 58 27 309 316 319 335 356 20 18 355 336
88 56 86 106 133 172 141 216 143 193 203 192 194 206 180 204 190 188 209 181 159 215 185 168 139 181 218 217 182 236 160 209 168 176 229 176 243 225 200 252 244 47 202 238 230 274 233 255 242 147 167 165 163 159 160 160 150 148 147 127 131 132 128 133 142 146 142 116 170 167 89 116 131 3 324 345 347 261 136 336 335 51 48 35 12 356 336
85 153 142 144 166 216 207 179 142 203 242 206 207 184 198 217 144 204 193 137 187 192 156 188 182 166 223 212 164 205 179 136 149 212 208 180 161 229 218 236 77 325 288 178 226 230 219 225 183 184 178 167 166 166 158 161 159 132 122 140 163 150 153 143 155 148 149 164 198 128 140 139 130 33 352 348 298 299 278 15 67 94 77 52 8 343 342
84 37 95 118 146 193 177 204 194 208 178 194 199 186 204 216 204 176 187 173 198 187 170 165 176 183 194 207 202 290 241 161 191 234 154 199 196 264 248 173 222 187 205 226 229 235 250 238 190 177 166 158 154 151 152 157 138 138 146 150 153 154 148 133 135 120 152 165 129 104 103 117 51 38 65 22 336 308 310 54 96 107 103 81 2 358 357
137 166 122 186 202 158 190 227 232 273 213 203 200 193 216 190 230 252 242 188 181 156 176 161 201 213 236 282 192 215 224 285 169 272 165 205 156 222 239 226 227 210 198 204 230 216 217 190 171 169 164 155 150 155 160 138 137 142 140 147 145 141 134 135 127 145 174 134 113 125 149 94 79 91 61 331 334 327 348 121 151 142 107 69 32 13 355
130 147 169 221 210 168 222 223 156 243 236 238 245 234 190 194 225 235 227 164 163 190 183 162 196 108 242 202 177 155 219 189 202 225 139 189 190 208 190 225 198 231 234 168 206 207 193 175 164 153 152 151 152 145 143 140 140 138 147 145 156 159 151 146 169 183 133 111 126 148 142 128 123 104 11 16 7 312 321 201 177 120 105 84 41 28 359
122 240 199 226 231 263 202 110 136 234 253 252 236 246 214 225 228 234 171 156 162 121 76 46 65 119 234 155 251 190 230 180 195 204 189 208 200 219 223 237 214 197 238 217 188 198 161 150 148 149 158 155 148 141 142 147 148 149 156 159 161 160 169 164 145 120 130 150 165 160 138 120 114 147 27 334 268 275 248 196 89 94 52 47 51 31 6
318 252 244 205 194 230 145 187 190 203 198 218 216 225 200 218 197 210 193 129 128 79 87 183 184 160 205 189 208 224 226 149 177 211 201 202 193 214 215 225 230 193 219 219 181 158 157 163 157 158 161 162 159 158 157 160 160 160 163 158 167 141 114 126 136 135 137 169 145 113 114 143 191 360 250 180 24 37 23 22 41 92 46 34 41 44 21
175 196 236 235 212 241 243 345 21 208 207 198 207 230 180 225 205 205 166 119 120 163 206 161 140 183 207 217 210 217 76 164 231 171 204 234 191 201 218 201 209 211 165 145 164 173 165 168 169 167 171 168 168 165 161 157 155 159 160 164 145 129 142 138 141 148 163 114 108 137 164 201 138 96 93 52 42 55 52 59 358 29 44 54 331 326 354